TimeEDT,TemperatureF,Dew PointF,Humidity,Sea Level PressureIn,VisibilityMPH,Wind Direction,Wind SpeedMPH,Gust SpeedMPH,PrecipitationIn,Events,Conditions,WindDirDegrees,DateUTC
12:54 AM,63.0,55.9,78,30.11,10.0,Calm,Calm,-,N/A,,Clear,0,2013-09-16 04:54:00
1:54 AM,64.0,57.0,78,30.10,10.0,Calm,Calm,-,N/A,,Partly Cloudy,0,2013-09-16 05:54:00
2:54 AM,64.0,57.0,78,30.08,10.0,Variable,5.8,-,N/A,,Scattered Clouds,0,2013-09-16 06:54:00
3:54 AM,64.9,57.9,78,30.07,10.0,SSW,6.9,-,N/A,,Overcast,210,2013-09-16 07:54:00
4:54 AM,64.0,59.0,84,30.06,10.0,SW,4.6,-,N/A,,Overcast,230,2013-09-16 08:54:00
5:54 AM,63.0,59.0,87,30.07,10.0,West,3.5,-,N/A,,Mostly Cloudy,270,2013-09-16 09:54:00
6:54 AM,63.0,59.0,87,30.08,10.0,Calm,Calm,-,N/A,,Mostly Cloudy,0,2013-09-16 10:54:00
7:54 AM,64.0,59.0,84,30.09,10.0,NW,4.6,-,0.00,,Overcast,310,2013-09-16 11:54:00
8:54 AM,64.0,57.9,80,30.11,10.0,NNW,11.5,-,N/A,,Overcast,330,2013-09-16 12:54:00
9:54 AM,62.1,57.9,86,30.12,4.0,NNW,11.5,-,0.04,Rain,Rain,340,2013-09-16 13:54:00
10:54 AM,62.1,59.0,90,30.12,9.0,NNW,4.6,-,0.02,Rain,Light Rain,330,2013-09-16 14:54:00
11:54 AM,63.0,59.0,87,30.12,9.0,NNW,3.5,-,0.01,,Overcast,330,2013-09-16 15:54:00
12:54 PM,64.9,59.0,81,30.12,10.0,NNW,4.6,-,N/A,,Overcast,340,2013-09-16 16:54:00
1:54 PM,68.0,57.0,68,30.12,10.0,North,6.9,-,N/A,,Overcast,360,2013-09-16 17:54:00
2:54 PM,71.1,55.0,57,30.10,10.0,Variable,3.5,-,N/A,,Mostly Cloudy,0,2013-09-16 18:54:00
3:54 PM,71.1,52.0,51,30.09,10.0,NNW,9.2,-,N/A,,Overcast,330,2013-09-16 19:54:00
4:54 PM,71.1,53.1,53,30.10,10.0,NNW,5.8,-,N/A,,Overcast,340,2013-09-16 20:54:00
5:54 PM,71.1,51.1,49,30.12,10.0,NNW,9.2,-,N/A,,Overcast,340,2013-09-16 21:54:00
6:54 PM,68.0,51.1,55,30.13,10.0,North,5.8,-,N/A,,Scattered Clouds,350,2013-09-16 22:54:00
7:54 PM,66.9,51.1,57,30.15,10.0,North,10.4,-,N/A,,Clear,360,2013-09-16 23:54:00
8:54 PM,64.9,51.1,61,30.19,10.0,North,12.7,18.4,N/A,,Clear,360,2013-09-17 00:54:00
9:54 PM,63.0,50.0,63,30.21,10.0,North,12.7,-,N/A,,Clear,10,2013-09-17 01:54:00
10:54 PM,60.1,50.0,69,30.24,10.0,North,10.4,-,N/A,,Clear,350,2013-09-17 02:54:00
11:54 PM,60.1,48.9,67,30.26,10.0,North,9.2,-,N/A,,Clear,360,2013-09-17 03:54:00